Location: Lake Arresoe
(56.0000°N, 12.5000°E)
Time: 11:15:03
(UTC+02:00)

Okean 3 - Visible Passes

Search period start: 14 August 2020 00:00
Search period end: 24 August 2020 00:00
Orbit: 576 x 601 km, 82.5° (Epoch: 14 August)

Date Brightness Start Highest point End Pass type
(mag) Time Alt. Az. Time Alt. Az. Time Alt. Az.
14 Aug 4.0 22:17:00 10° N 22:21:10 46° ENE 22:24:17 17° SE visible
14 Aug 5.2 23:54:37 10° NNW 23:58:13 26° W 00:00:48 15° SW visible
15 Aug 3.6 22:24:45 10° N 22:29:02 63° ENE 22:32:07 18° SSE visible
16 Aug 5.6 00:02:45 10° NW 00:05:52 20° W 00:08:38 12° SW visible
16 Aug 3.5 22:32:33 10° NNW 22:36:54 86° E 22:39:59 19° SSE visible
17 Aug 6.0 00:11:03 10° NW 00:13:31 15° W 00:15:58 10° WSW visible
17 Aug 3.7 22:40:24 10° NNW 22:44:42 71° W 22:47:51 18° S visible
18 Aug 6.2 00:19:50 10° WNW 00:21:07 11° WNW 00:22:23 10° W visible
18 Aug 4.2 22:48:17 10° NNW 22:52:29 51° W 22:55:45 16° SSW visible
19 Aug 4.4 21:19:00 10° N 21:22:55 33° ENE 21:26:49 10° SE visible
19 Aug 4.7 22:56:14 10° NNW 23:00:14 38° W 23:03:40 13° SSW visible
20 Aug 4.0 21:26:42 10° N 21:30:50 43° ENE 21:34:58 10° SE visible
20 Aug 5.2 23:04:13 10° NNW 23:07:56 28° W 23:11:36 10° SSW visible
21 Aug 3.7 21:34:27 10° N 21:38:44 58° ENE 21:42:59 10° SSE visible
21 Aug 5.7 23:12:20 10° NW 23:15:37 21° W 23:18:53 10° SW visible
22 Aug 3.5 21:42:14 10° N 21:46:35 79° ENE 21:50:54 10° SSE visible
22 Aug 6.1 23:20:35 10° NW 23:23:15 16° W 23:25:55 10° WSW visible
23 Aug 3.6 21:50:04 10° NNW 21:54:24 77° W 21:58:42 10° S visible
23 Aug 6.3 23:29:10 10° NW 23:30:51 12° W 23:32:34 10° WSW visible
